Flag for Canada Weather past 2 weeks in Sherbrooke, Quebec, Canada

Now
46 °F

Overcast.


Feels Like: 42 °F
Forecast: 41 / 47 °F
Wind: 9 mph from Northeast

Location: Sherbrooke

Current Time: Oct 22, 2014 at 10:39:19 PM

Latest Report: Oct 22, 2014 at 10:00 PM


Visibility: 9 mi

Pressure: 30.17 "Hg

Humidity: 71%

Dew point: 37 °F

Location of SherbrookeLocation

Historic Weather in Sherbrooke — Graph

°F

Sherbrooke temperature yesterday

Maximum temperature yesterday: 46 °F (at 12:00 PM)
Minimum temperature yesterday: 39 °F (at 12:00 AM)
Average temperature yesterday: 43 °F

Past Weeks' High & Low Weather Summary

 TemperatureHumidityPressure
High79 °F (Oct 15, 2:00 PM)100% (Oct 11, 3:00 AM)30.31 "Hg (Oct 11, 3:00 AM)
Low28 °F (Oct 13, 7:00 AM)37% (Oct 13, 1:00 PM)29.47 "Hg (Oct 18, 3:59 PM)
Average50 °F81%29.93 "Hg
* Reported Oct 7 9:00 PM — Oct 22 9:00 PM, Sherbrooke, Weather by CustomWeather, © 2014

Note: Actual official high and low records may vary slightly from our data, if they occured in-between our weather recording intervals... More about our weather records

Advertising

Sherbrooke weather history for previous 24 hours

 ConditionsComfort  
Time TempWeatherWind HumidityBarometerVisibility
9:00 PM
Oct 22
48 °FOvercast.10 mph66%30.19 "Hg9 mi
8:00 PM48 °FMostly cloudy.14 mph66%30.20 "HgN/A
7:00 PM50 °FCool.12 mph62%30.20 "Hg9 mi
6:00 PM50 °FOvercast.9 mph67%30.22 "Hg9 mi
5:00 PM52 °FPartly sunny.9 mph62%30.21 "Hg9 mi
4:00 PM54 °FMostly cloudy.16 mph58%30.22 "Hg9 mi
2:00 PM52 °FPartly sunny.7 mph67%30.22 "Hg9 mi
1:00 PM52 °FCool.12 mph67%30.24 "Hg9 mi
12:00 PM48 °FPartly sunny.10 mph76%30.26 "Hg9 mi
11:00 AM45 °FQuite cool.N/A93%30.27 "HgN/A
9:59 AMN/AN/AN/AN/A9 mi
9:03 AM39 °FLight rain. More clouds than sun.13 mph100%30.27 "Hg9 mi
9:00 AM39 °FLight rain. More clouds than sun.13 mph100%30.27 "Hg9 mi
8:00 AM39 °FLight rain. Overcast.9 mph100%30.26 "Hg9 mi
7:00 AM39 °FLight rain. Overcast.12 mph100%30.23 "Hg9 mi
6:00 AM39 °FLight rain. Overcast.13 mph100%30.22 "Hg8 mi
5:00 AM41 °FLight rain. Mostly cloudy.13 mph93%30.20 "Hg7 mi
4:00 AM41 °FLight rain. Fog.9 mph100%30.19 "Hg5 mi
3:00 AM41 °FLight rain. Mostly cloudy.8 mph100%30.19 "Hg5 mi
2:58 AM41 °FLight rain. Fog.9 mph100%30.19 "Hg5 mi
2:00 AM43 °FLight rain. Overcast.10 mph93%30.18 "Hg9 mi
1:00 AM43 °FOvercast.10 mph93%30.18 "Hg9 mi
12:00 AM43 °FLight rain. Overcast.8 mph93%30.17 "Hg9 mi
11:00 PM
Oct 21
43 °FOvercast.9 mph93%30.17 "Hg9 mi
10:00 PM43 °FLight rain. Mostly cloudy.10 mph100%30.16 "Hg9 mi
Weather by CustomWeather, © 2014

See weather overviewHow to use our weather pages